Flag for U.S.A. Weather past 2 weeks in Rancho Cucamonga, California, U.S.A.

Now
68 °F

Passing clouds.


Feels Like: 68 °F
Forecast: 66 / 89 °F
Wind: No wind

Location: Ontario International Airport

Current Time: Aug 31, 2015 at 7:18:38 AM

Latest Report: Aug 31, 2015 at 6:53 AM


Visibility: 10 mi

Pressure: 29.84 "Hg

Humidity: 78%

Dew point: 61 °F

Location of Rancho CucamongaLocation

Historic Weather in Rancho Cucamonga — Graph

°F

Rancho Cucamonga temperature yesterday

Maximum temperature yesterday: 95 °F (at 2:53 PM)
Minimum temperature yesterday: 70 °F (at 6:53 AM)
Average temperature yesterday: 81 °F

Past Weeks' High & Low Weather Summary

 TemperatureHumidityPressure
High106 °F (Aug 16, 1:53 PM)87% (Aug 18, 6:53 AM)29.95 "Hg (Aug 18, 6:53 AM)
Low65 °F (Aug 19, 4:53 AM)9% (Aug 16, 12:53 PM)29.74 "Hg (Aug 16, 4:53 PM)
Average80 °F52%29.85 "Hg
* Reported Aug 16 5:53 AM — Aug 31 5:53 AM, Rancho Cucamonga, Weather by CustomWeather, © 2015

Note: Actual official high and low records may vary slightly from our data, if they occured in-between our weather recording intervals... More about our weather records

Advertising

Rancho Cucamonga weather history for previous 24 hours

 ConditionsComfort  
Time TempWeatherWind HumidityBarometerVisibility
5:53 AM
Mon, Aug 31
68 °FPassing clouds.5 mph76%29.82 "Hg10 mi
4:53 AM69 °FClear.No wind73%29.81 "Hg10 mi
3:53 AM69 °FClear.3 mph73%29.81 "Hg10 mi
2:53 AM70 °FPassing clouds.No wind68%29.80 "Hg10 mi
1:53 AM71 °FPassing clouds.No wind68%29.80 "Hg10 mi
12:53 AM73 °FPassing clouds.3 mph66%29.81 "Hg10 mi
11:53 PM
Sun, Aug 30
73 °FPassing clouds.7 mph66%29.81 "Hg10 mi
10:53 PM74 °FPassing clouds.6 mph64%29.81 "Hg10 mi
9:53 PM75 °FPassing clouds.6 mph62%29.81 "Hg10 mi
8:53 PM77 °FPassing clouds.8 mph60%29.80 "Hg10 mi
7:53 PM79 °FScattered clouds.7 mph58%29.78 "Hg10 mi
6:53 PM83 °FScattered clouds.14 mph46%29.77 "Hg10 mi
5:53 PM87 °FScattered clouds.13 mph39%29.77 "Hg10 mi
4:53 PM90 °FScattered clouds.14 mph34%29.77 "Hg10 mi
3:53 PM92 °FScattered clouds.13 mph35%29.78 "Hg10 mi
2:53 PM95 °FScattered clouds.13 mph30%29.80 "Hg10 mi
1:53 PM93 °FScattered clouds.13 mph32%29.82 "Hg10 mi
12:53 PM91 °FScattered clouds.10 mph36%29.84 "Hg10 mi
11:53 AM90 °FScattered clouds.6 mph34%29.85 "Hg10 mi
10:53 AM87 °FPassing clouds.7 mph39%29.87 "Hg10 mi
9:53 AM82 °FPassing clouds.3 mph48%29.87 "Hg10 mi
8:53 AM78 °FPassing clouds.3 mph54%29.87 "Hg10 mi
7:53 AM75 °FPassing clouds.No wind62%29.87 "Hg10 mi
Weather by CustomWeather, © 2015

See weather overviewHow to use our weather pages